Toronto Pearson, Ontario

1:12 AM EDT on April 28, 2017 (GMT -0400)
Toronto-Pearson International

Weather History for CYYZ - January, 2014

Change the Weather History Date:

Monday, January 6, 2014

  Actual Average Record
Temperature  
Mean Temperature 13 °F -  
Max Temperature 23 °F 28 °F 50 °F (1998)
Min Temperature 3 °F 12 °F 3 °F (2014)
Degree Days  
Heating Degree Days 52    
Moisture  
Dew Point 10 °F    
Average Humidity 79    
Maximum Humidity 100    
Minimum Humidity 55    
Precipitation  
Precipitation 0.16 in 0.06 in - ()
Sea Level Pressure  
Sea Level Pressure 29.59 in    
Wind  
Wind Speed 19 mph ()    
Max Wind Speed 38 mph    
Max Gust Speed 48 mph    
Visibility 8.5 miles    
Events Rain , Snow    
Averages and records for this station are not official NWS values.
T = Trace of Precipitation, MM = Missing Value Source: Averaged Metar Reports

Daily Weather History Graph

Daily Weather History Graph

Search for Another Location

Airport or City:

Trip Planner

Search our weather history database for the weather conditions in past years. The results will help you decide how hot, cold, wet, or windy it might be!

Date:

Astronomy

Jan. 06, 2014 Rise Set
Actual Time 7:51 AM EST 4:57 PM EST
Civil Twilight 7:19 AM EST 5:29 PM EST
Nautical Twilight 6:43 AM EST 6:05 PM EST
Astronomical Twilight 6:08 AM EST 6:40 PM EST
Moon 10:54 AM EST (1/6) 11:42 PM EST (1/6)
Length of Visible Light 10h 10m
Length of Day
9h 05m
Waxing Crescent, 34% of the Moon is Illuminated
Jan 6
Waxing Crescent
Jan 7
First Quarter
Jan 15
Full
Jan 24
Last Quarter
Jan 30
New

Hourly Weather History & Observations

Time (EST) Temp. Windchill Dew Point Humidity Pressure Visibility Wind Dir Wind Speed Gust Speed Precip Events Conditions
12:00 AM 32.0 °F 25.6 °F 30.2 °F 93% 29.40 in 4.0 mi NNE 6.9 mph - N/A Snow Light Snow
12:20 AM 30.2 °F 21.3 °F 30.2 °F 100% 29.35 in 5.0 mi NNE 10.4 mph - N/A Rain Light Freezing Rain
1:00 AM 31 °F - 30 °F 95% 29.31 in 5 mi NNE 6.9 mph - -   Light Freezing Rain
1:00 AM 32.0 °F 25.6 °F 30.2 °F 93% 29.31 in 5.0 mi NNE 6.9 mph - N/A Rain Light Freezing Rain
2:00 AM 30.2 °F 20.8 °F 28.4 °F 93% 29.25 in 6.0 mi NW 11.5 mph - N/A Rain Light Freezing Rain
2:43 AM 30.2 °F 16.8 °F 28.4 °F 93% 29.28 in 5.0 mi NW 23.0 mph - N/A Rain Light Freezing Rain
2:55 AM 30.2 °F 18.5 °F 28.4 °F 93% 29.24 in 8.0 mi North 17.3 mph 24.2 mph N/A Rain Light Freezing Rain
3:00 AM 30.2 °F 19.3 °F 28.4 °F 93% 29.23 in 10.0 mi North 15.0 mph 23.0 mph N/A Rain Light Freezing Rain
3:11 AM 28.4 °F 17.5 °F 26.6 °F 93% 29.21 in 10.0 mi North 13.8 mph 20.7 mph N/A   Overcast
3:55 AM 28.4 °F 13.8 °F 26.6 °F 93% 29.23 in 8.0 mi NW 25.3 mph - N/A Snow Light Snow Showers
4:00 AM 28.4 °F 13.5 °F 24.8 °F 86% 29.24 in 8.0 mi WNW 26.5 mph - N/A Snow Light Snow Showers
5:00 AM 28.4 °F 14.4 °F 24.8 °F 86% 29.28 in 10.0 mi WNW 23.0 mph - N/A   Overcast
6:00 AM 24.8 °F 10.7 °F 19.4 °F 80% 29.37 in 15.0 mi WNW 19.6 mph 32.2 mph N/A   Mostly Cloudy
7:00 AM 22 °F - 16 °F 70% 29.47 in 15 mi WNW 24.2 mph - -   Partly Cloudy
7:00 AM 23.0 °F 6.9 °F 15.8 °F 74% 29.47 in 15.0 mi WNW 24.2 mph 33.4 mph N/A   Scattered Clouds
8:00 AM 21.2 °F 4.9 °F 14.0 °F 74% 29.53 in 15.0 mi West 23.0 mph 28.8 mph N/A   Partly Cloudy
9:00 AM 21.2 °F 7.8 °F 15.8 °F 80% 29.58 in 15.0 mi West 15.0 mph - N/A   Partly Cloudy
10:00 AM 23.0 °F 9.2 °F 15.8 °F 74% 29.62 in 15.0 mi West 17.3 mph 25.3 mph N/A   Partly Cloudy
11:00 AM 23.0 °F 10.6 °F 17.6 °F 80% 29.62 in 15.0 mi West 13.8 mph 19.6 mph N/A   Overcast
11:13 AM 23.0 °F 8.3 °F 17.6 °F 80% 29.62 in 10.0 mi West 19.6 mph 25.3 mph N/A Snow Light Snow Showers
11:44 AM 19.4 °F 0.2 °F 12.2 °F 74% 29.63 in 15.0 mi West 31.1 mph 39.1 mph N/A   Mostly Cloudy
12:00 PM 19.4 °F 1.8 °F 12.2 °F 74% 29.63 in 15.0 mi West 25.3 mph 34.5 mph N/A   Mostly Cloudy
1:00 PM 18 °F - 11 °F 63% 29.63 in 15 mi WSW 23.0 mph - -   Partly Cloudy
1:00 PM 17.6 °F -0.6 °F 10.4 °F 73% 29.63 in 15.0 mi WSW 25.3 mph 31.1 mph N/A   Mostly Cloudy
2:00 PM 17.6 °F 1.3 °F 10.4 °F 73% 29.64 in 15.0 mi West 19.6 mph 31.1 mph N/A   Mostly Cloudy
2:09 PM 17.6 °F 0.5 °F 10.4 °F 73% 29.64 in 12.0 mi West 21.9 mph 27.6 mph N/A Snow Light Snow Showers
2:26 PM 17.6 °F 2.2 °F 10.4 °F 73% 29.64 in 15.0 mi West 17.3 mph 26.5 mph N/A   Mostly Cloudy
3:00 PM 17.6 °F -0.6 °F 8.6 °F 68% 29.65 in 15.0 mi WSW 25.3 mph 33.4 mph N/A   Mostly Cloudy
4:00 PM 15.8 °F -2.7 °F 6.8 °F 68% 29.67 in 9.0 mi WSW 24.2 mph 33.4 mph N/A Snow Light Snow Showers
4:15 PM 14.0 °F -7.4 °F 6.8 °F 73% 29.67 in 2.0 mi WSW 32.2 mph 38.0 mph N/A Snow Light Snow Showers
4:22 PM 12.2 °F -7.9 °F 6.8 °F 79% 29.68 in 10.0 mi WSW 25.3 mph 38.0 mph N/A Snow Low Drifting Snow
5:00 PM 10.4 °F -12.7 °F 1.4 °F 67% 29.70 in 15.0 mi WSW 33.4 mph 40.3 mph N/A   Mostly Cloudy
6:00 PM 6.8 °F -16.6 °F -2.2 °F 67% 29.72 in 15.0 mi WSW 29.9 mph 40.3 mph N/A   Mostly Cloudy
7:00 PM 5 °F - -3 °F 55% 29.73 in 15 mi WSW 28.8 mph - -   Partly Cloudy
7:00 PM 5.0 °F -19.0 °F -4.0 °F 66% 29.73 in 15.0 mi WSW 29.9 mph 39.1 mph N/A   Mostly Cloudy
7:36 PM 3.2 °F -21.8 °F -4.0 °F 72% 29.73 in 12.0 mi WSW 31.1 mph 42.6 mph N/A Snow Light Snow Showers
7:53 PM 3.2 °F -21.8 °F -4.0 °F 72% 29.74 in 4.0 mi WSW 31.1 mph 39.1 mph N/A Snow Light Snow Showers
8:00 PM 3.2 °F -21.8 °F -4.0 °F 72% 29.74 in 3.0 mi WSW 31.1 mph 39.1 mph N/A Snow Light Snow Showers
8:19 PM 3.2 °F -19.9 °F -2.2 °F 78% 29.74 in 2.5 mi WSW 25.3 mph 39.1 mph N/A Snow Light Snow Showers
8:29 PM 3.2 °F -21.5 °F -0.4 °F 85% 29.73 in 1.2 mi WSW 29.9 mph 39.1 mph N/A Snow Light Snow Showers
8:34 PM 3.2 °F -21.5 °F -0.4 °F 85% 29.73 in 0.8 mi WSW 29.9 mph 39.1 mph N/A Snow Light Snow Showers
9:00 PM 5.0 °F -19.7 °F 1.4 °F 85% 29.74 in 1.0 mi WSW 32.2 mph 40.3 mph N/A Snow Light Snow Showers
9:11 PM 5.0 °F -18.7 °F 1.4 °F 85% 29.75 in 0.6 mi WSW 28.8 mph 41.4 mph N/A Snow Light Snow Showers
9:21 PM 6.8 °F -17.3 °F 3.2 °F 85% 29.75 in 0.5 mi West 32.2 mph - N/A Snow Snow Showers
9:56 PM 6.8 °F -16.9 °F 1.4 °F 79% 29.77 in 0.6 mi West 31.1 mph 43.7 mph N/A Snow Light Snow Showers
10:00 PM 6.8 °F -15.5 °F 3.2 °F 85% 29.77 in 0.8 mi West 26.5 mph 43.7 mph N/A Snow Light Snow Showers
10:09 PM 6.8 °F -16.2 °F 1.4 °F 79% 29.77 in 1.5 mi West 28.8 mph 38.0 mph N/A Snow Light Snow Showers
10:39 PM 5.0 °F -19.7 °F -0.4 °F 78% 29.77 in 4.0 mi West 32.2 mph 40.3 mph N/A Snow Low Drifting Snow
10:52 PM 5.0 °F -20.4 °F -0.4 °F 78% 29.78 in 4.0 mi West 34.5 mph 43.7 mph N/A Snow Light Snow Showers
11:00 PM 5.0 °F -19.0 °F -0.4 °F 78% 29.79 in 4.0 mi WSW 29.9 mph 44.9 mph N/A Snow Light Snow Showers
11:08 PM 5.0 °F -20.1 °F -0.4 °F 78% 29.79 in 1.8 mi West 33.4 mph 42.6 mph N/A Snow Light Snow Showers
11:29 PM 3.2 °F -23.8 °F -2.2 °F 78% 29.80 in 4.0 mi West 38.0 mph 48.3 mph N/A Snow Light Snow Showers
11:38 PM 3.2 °F -23.2 °F -4.0 °F 72% 29.81 in 8.0 mi West 35.7 mph 48.3 mph N/A Snow Low Drifting Snow